Regional Weather Roundup
Issued by NWS

Home | Current Version | Previous Version | Text Only | Print | Product List | Glossary On
Versions: 1 2 3 4 5 6 7 8 9 10 11 12 13 14 15 16 17 18 19 20 21 22 23 24 25 26 27 28 29 30 31 32 33 34 35 36 37 38
000
ASUS44 KJAN 240620
RWRMS

MISSISSIPPI HOURLY WEATHER ROUNDUP
NATIONAL WEATHER SERVICE JACKSON MS
100 AM CDT WED AUG 24 2016

NOTE: "FAIR: INDICATES FEW OR NO CLOUDS BELOW 12,000 FEET WITH NO
SIGNIFICANT WEATHER AND/OR OBSTRUCTIONS TO VISIBILITY.

MSZ001>002-007>008-010>013-018>021-025>028-034>036-240700-
NORTHWEST MISSISSIPPI

CITY           SKY/WX    TMP DP  RH WIND       PRES   REMARKS
CLEVELAND      FAIR      78  78 100 S6        30.13F
GREENWOOD      CLEAR     77  73  87 S6        30.15S
6HR MIN TEMP:  77; 6HR MAX TEMP:  88;

GREENVILLE     CLEAR     78  74  87 S6        30.14S
6HR MIN TEMP:  78; 6HR MAX TEMP:  89;

OXFORD         FAIR      75  72  88 S7        30.18S
$$

MSZ003>006-009-014>017-022>024-029>033-037>039-240700-
NORTHEAST MISSISSIPPI

CITY           SKY/WX    TMP DP  RH WIND       PRES   REMARKS
ABERDEEN       FAIR      73  55  53 CALM      30.18F HAZE
COLUMBUS AFB   CLEAR     76  75  99 CALM      30.16F
6HR MIN TEMP:  76; 6HR MAX TEMP:  88;

CORINTH        FAIR      75  72  88 CALM      30.17S
GOLDN TRIANGLE CLEAR     75  70  83 S3        30.16F
TUPELO         CLEAR     77  72  84 CALM      30.17S
6HR MIN TEMP:  77; 6HR MAX TEMP:  89;

$$

MSZ040-058-240700-
CENTRAL MISSISSIPPI

CITY           SKY/WX    TMP DP  RH WIND       PRES   REMARKS
JACKSON INTL   CLEAR     76  73  91 CALM      30.16F
6HR MIN TEMP:  76; 6HR MAX TEMP:  86;

JACKSON HAWKNS CLEAR     77  73  87 CALM      30.17S
6HR MIN TEMP:  77; 6HR MAX TEMP:  84;

MADISON        FAIR      72  72 100 CALM      30.16F
MERIDIAN KEY   CLEAR     78  74  87 CALM      30.17F
6HR MIN TEMP:  77; 6HR MAX TEMP:  86;

MERIDIAN NAS   CLEAR     77  73  87 NW3       30.17F
6HR MIN TEMP:  77; 6HR MAX TEMP:  89;

$$

MSZ059>079-240700-
SOUTH MISSISSIPPI

CITY           SKY/WX    TMP DP  RH WIND       PRES   REMARKS
BROOKHAVEN     FAIR     N/A N/A N/A SE3       30.19S
HATTIESBURG    CLEAR     79  76  90 CALM      30.16F
6HR MIN TEMP:  78; 6HR MAX TEMP:  85; 6HR PCP: TRACE;

MCCOMB         PTCLDY    76  73  91 CALM      30.18S
6HR MIN TEMP:  75; 6HR MAX TEMP:  83;

NATCHEZ        CLEAR     77  72  83 S3        30.17R
6HR MIN TEMP:  77; 6HR MAX TEMP:  90;

PINE BELT      CLEAR     73  72  94 CALM      30.17F
6HR MIN TEMP:  70; 6HR MAX TEMP:  82;

$$

MSZ080>082-240700-
COASTAL MISSISSIPPI

CITY           SKY/WX    TMP DP  RH WIND       PRES   REMARKS
BILOXI         CLEAR     81  76  86 N2        30.14F
6HR MIN TEMP:  81; 6HR MAX TEMP:  87;

PASCAGOULA     CLOUDY    77  77 100 CALM      30.14F FOG
6HR MIN TEMP:  77; 6HR MAX TEMP:  85;

GULFPORT       CLEAR     78  76  93 CALM      30.14F
6HR MIN TEMP:  78; 6HR MAX TEMP:  83;

$$

LAZ007>009-015>016-023>026-240700-
NORTHEAST LOUISIANA

CITY           SKY/WX    TMP DP  RH WIND       PRES   REMARKS
BASTROP        FAIR      78  77  98 CALM      30.16S
TALLULAH/VBURG LGT RAIN  77  75  93 CALM      30.15F
6HR MIN TEMP:  77; 6HR MAX TEMP:  91; 6HR PCP: TRACE;

$$




USA.gov is the U.S. government's official web portal to all federal, state and local government web resources and services.